Weather History for PAMR - February, 2011

Change the Weather History Date:

Sunday, February 20, 2011

  Actual Average Record
Temperature  
Mean Temperature 8 °F -  
Max Temperature 18 °F 29 °F 32 °F (2015)
Min Temperature -2 °F 16 °F 1 °F (2014)
Degree Days  
Heating Degree Days 57    
Moisture  
Dew Point 0 °F    
Average Humidity 66    
Maximum Humidity 80    
Minimum Humidity 54    
Precipitation  
Precipitation 0.02 in - - ()
Snow  
Snow 0.00 in - - ()
Snow Depth 12.00 in    
Sea Level Pressure  
Sea Level Pressure 30.08 in    
Wind  
Wind Speed 2 mph (NE)    
Max Wind Speed 5 mph    
Max Gust Speed -    
Visibility 10 miles    
Events Snow    
Averages and records for this station are not official NWS values.
T = Trace of Precipitation, MM = Missing Value Source: NWS Daily Summary

Daily Weather History Graph

Daily Weather History Graph

Search for Another Location

Airport or City:

Trip Planner

Search our weather history database for the weather conditions in past years. The results will help you decide how hot, cold, wet, or windy it might be!

Date:

Astronomy

Feb. 20, 2011 Rise Set
Actual Time 8:27 AM AKST 5:59 PM AKST
Civil Twilight 7:42 AM AKST 6:44 PM AKST
Nautical Twilight 6:52 AM AKST 7:35 PM AKST
Astronomical Twilight 6:02 AM AKST 8:25 PM AKST
Moon 10:59 PM AKST (2/20) 8:18 AM AKST (2/20)
Length of Visible Light 11h 02m
Length of Day
9h 32m
Waning Gibbous, 91% of the Moon is Illuminated
Feb 20
Waning Gibbous
Feb 24
Last Quarter
Mar 4
New
Mar 12
First Quarter
Mar 19
Full

Hourly Weather History & Observations

Time (AKST) Temp. Windchill Dew Point Humidity Pressure Visibility Wind Dir Wind Speed Gust Speed Precip Events Conditions
12:53 AM -2.0 °F - -9.0 °F 72% 30.11 in 10.0 mi Calm Calm - N/A   Clear
1:53 AM -2.0 °F - -8.0 °F 76% 30.12 in 10.0 mi Calm Calm - N/A   Clear
2:53 AM -2.9 °F -13.3 °F -8.0 °F 79% 30.12 in 10.0 mi East 4.6 mph - N/A   Clear
3:53 AM 1.0 °F - -6.0 °F 72% 30.11 in 10.0 mi Calm Calm - N/A   Clear
4:53 AM 3.0 °F -4.4 °F -6.0 °F 66% 30.10 in 10.0 mi East 3.5 mph - 0.01 in   Scattered Clouds
5:53 AM 5.0 °F - -2.9 °F 70% 30.08 in 10.0 mi Calm Calm - N/A   Clear
6:53 AM 8.1 °F 1.4 °F -2.0 °F 64% 30.05 in 10.0 mi East 3.5 mph - N/A   Overcast
7:53 AM 8.1 °F 1.4 °F -2.0 °F 64% 30.04 in 10.0 mi NNW 3.5 mph - N/A   Mostly Cloudy
8:53 AM 8.1 °F - -2.0 °F 64% 30.01 in 10.0 mi Calm Calm - N/A   Scattered Clouds
9:53 AM 10.0 °F 3.6 °F -0.9 °F 61% 30.01 in 10.0 mi NNE 3.5 mph - N/A   Overcast
10:53 AM 12.0 °F 5.9 °F -0.0 °F 59% 30.02 in 10.0 mi ENE 3.5 mph - N/A   Overcast
11:53 AM 14.0 °F 8.2 °F 3.0 °F 62% 30.02 in 10.0 mi NNE 3.5 mph - N/A   Overcast
12:53 PM 15.1 °F - 1.0 °F 54% 30.02 in 10.0 mi Calm Calm - N/A   Overcast
1:53 PM 16.0 °F 8.8 °F 1.9 °F 54% 30.02 in 10.0 mi NNW 4.6 mph - N/A   Overcast
2:53 PM 18.0 °F 12.7 °F 7.0 °F 62% 30.03 in 10.0 mi North 3.5 mph - 0.01 in   Overcast
3:53 PM 18.0 °F - 5.0 °F 57% 30.03 in 10.0 mi Calm Calm - 0.00 in Snow Light Snow
4:53 PM 17.1 °F 11.7 °F 3.9 °F 56% 30.04 in 9.0 mi North 3.5 mph - 0.00 in Snow Light Snow
5:53 PM 16.0 °F - 3.9 °F 59% 30.06 in 9.0 mi Calm Calm - 0.00 in Snow Light Snow
6:00 PM 15.8 °F - 3.2 °F 58% 30.05 in 9.0 mi Calm Calm - 0.00 in Snow Light Snow
6:53 PM 17.1 °F - 3.0 °F 54% 30.09 in 9.0 mi Calm Calm - 0.00 in Snow Light Snow
7:53 PM 17.1 °F 11.7 °F 5.0 °F 59% 30.11 in 9.0 mi NNE 3.5 mph - 0.00 in Snow Light Snow
8:53 PM 12.0 °F - 3.9 °F 70% 30.12 in 10.0 mi Calm Calm - 0.00 in   Mostly Cloudy
9:53 PM 10.9 °F 4.7 °F 3.9 °F 73% 30.14 in 10.0 mi NNE 3.5 mph - N/A   Mostly Cloudy
10:33 PM 5.0 °F -2.1 °F -0.4 °F 78% 30.14 in 10.0 mi East 3.5 mph - N/A   Mostly Cloudy
10:53 PM 8.1 °F - 3.0 °F 80% 30.15 in 10.0 mi Calm Calm - N/A   Mostly Cloudy
11:53 PM 5.0 °F - -0.0 °F 80% 30.17 in 10.0 mi Calm Calm - N/A   Mostly Cloudy